Simultaneous Nadir Overpasses (SNOs) Predictions

Prediction of SNOs between NOAA-20 and AQUA Satellite Orbit:

Table of predicted SNOs for the next 14.0 days since TLE Epoch: 7/20/2024
Index Date (NOAA-20) Time (NOAA-20) Lat,Lon (NOAA-20) SZA (NOAA-20 ) Date (AQUA) Time (AQUA) Lat,Lon (AQUA) SZA (AQUA ) Distance(km) Time Diff (sec)
1 07/20/2024 16:46:16 81.29,-146.84 67.79 07/20/2024 16:47:26 81.28,-146.81 67.74 0.65 70
2 07/20/2024 17:37:00 -81.29, 20.78 112.25 07/20/2024 17:36:48 -81.29, 20.96 112.27 2.97 12
3 07/23/2024 05:40:10 81.30, 20.41 68.19 07/23/2024 05:40:08 81.30, 20.34 68.20 1.14 2
4 07/25/2024 17:43:21 -81.30, 19.53 111.27 07/25/2024 17:43:28 -81.30, 19.60 111.29 1.29 7
5 07/28/2024 05:46:31 81.30, 18.94 69.26 07/28/2024 05:46:45 81.30, 18.84 69.27 1.73 14
6 07/28/2024 06:37:15 -81.30,-173.32 110.80 07/28/2024 06:36:07 -81.31,-173.35 110.75 0.58 68
7 07/30/2024 17:49:42 -81.30, 18.01 110.13 07/30/2024 17:50:02 -81.30, 18.04 110.15 0.62 20
8 07/30/2024 18:40:25 81.31,-174.01 69.79 07/30/2024 18:39:22 81.31,-174.00 69.82 0.76 63
9 08/02/2024 05:52:51 81.30, 17.21 70.50 08/02/2024 05:53:15 81.29, 17.15 70.49 1.11 24



Historial Predications of SNOs between NOAA-20 and AQUA
